Weather in Klicheno-Zarech'ye

Russia / Lipetsk Oblast     52°57′11″N   38°01′48″E
temp.,
°C
wind,
m/s
gust,
m/s
humid.,
%
clouds,
%
prec.,
mm/h
press.,
hPa
HPBL,
m
16 april, fri
fri1600:00+11se2389100 3.2 101487
03:00+9se348532 3.2 101570
06:00+8se3384100 0.0 101547
09:00+12sse3670100 0.0 1016405
12:00+15se465875 0.3 10161365
15:00+16se574793 1.6 10161830
18:00+15sse47458 0.1 1016432
21:00+10wsw35695 0.1 1017118
17 april, sat
sat1700:00+9n1172100 0.0 101814
03:00+9ne3677100 0.0 101891
06:00+9ene2473100 0.0 101785
09:00+8wnw1191100 1.8 1017136
12:00+9e4988100 2.5 1017909
15:00+8ssw5792100 4.2 1017529
18:00+7ssw4682100 0.2 1018605
21:00+6w118863 0.2 101910
18 april, sun
sun1800:00+6e249021 0.1 1019102
03:00+4ese239414 0.1 101948
06:00+4se2392100 0.0 101970
09:00+7sse3575100 0.0 1019407
12:00+11se345599 0.1 10191689
15:00+11sse335798 0.4 10191224
18:00+11ese3462100 0.2 1019500
21:00+9ese3776100 0.4 1019280
19 april, mon
mon1900:00+7ese5986100 1.1 1019476
03:00+7e4888100 1.3 1019236
06:00+7ese5991100 2.1 1019928
09:00+7ese61086100 4.1 1019897
12:00+11e576495 0.0 10191046
15:00+13ese575367 0.6 10171628
18:00+13ese585811 0.9 1017485
21:00+9e7138356 1.2 1017415
20 april, tue
tue2000:00+7e7149066 0.2 1017504
03:00+6e71492100 0.2 1016531
06:00+5ene91693100 0.0 1013597
09:00+6ene101993100 1.0 1010739
12:00+7e112294100 10.1 10041059
15:00+8ese132193100 16.4 1001963
18:00+11se81595100 2.5 1000732
21:00+12se9168318 2.8 1001952